DW7013 Weather Reports


time (UTC)temp
C
wind
direction
speed
KPH
gust
KPH
rain 1hr
cm
rain 24hr
cm
rain mn
cm
humidity
%
barometer
mb
20260904200730 22 313 0.0 0.0 0.00 0.00 0.00 58 1020.4
20260904200210 22 313 0.0 3.2 0.00 0.00 0.00 57 1020.4
20260904195720 22 9 0.0 8.0 0.00 0.00 0.00 57 1020.4
20260904195231 23 150 0.0 17.7 0.00 0.00 0.00 57 1020.3
20260904194711 23 196 1.6 17.7 0.00 0.00 0.00 54 1020.3
20260904194216 23 309 1.6 17.7 0.00 0.00 0.00 55 1020.3
20260904193726 23 344 3.2 12.9 0.00 0.00 0.00 55 1020.3
20260904193212 23 13 4.8 20.9 0.00 0.00 0.00 56 1020.3
20260904191713 22 5 1.6 9.7 0.00 0.00 0.00 57 1020.3
20260904191219 22 71 0.0 9.7 0.00 0.00 0.00 58 1020.3
20260904190716 22 37 0.0 9.7 0.00 0.00 0.00 59 1020.1
20260904190215 22 328 0.0 0.0 0.00 0.00 0.00 58 1020.0
20260904185720 23 0 0.0 0.0 0.00 0.00 0.00 58 1020.0
20260904185224 23 103 0.0 0.0 0.00 0.00 0.00 58 1020.0
20260904184717 23 343 0.0 3.2 0.00 0.00 0.00 58 1019.9
20260904184218 23 80 0.0 3.2 0.00 0.00 0.00 57 1019.8
20260904183722 23 325 0.0 3.2 0.00 0.00 0.00 57 1019.9
20260904183219 23 53 0.0 0.0 0.00 0.00 0.00 56 1019.8
20260904182733 23 5 0.0 0.0 0.00 0.00 0.00 56 1019.7
20260904182220 23 182 0.0 0.0 0.00 0.00 0.00 56 1019.7
20260904181728 23 355 0.0 0.0 0.00 0.00 0.00 55 1019.7
20260904181223 24 276 0.0 0.0 0.00 0.00 0.00 55 1019.5
20260904180708 24 276 0.0 0.0 0.00 0.00 0.00 54 1019.5
20260904180210 24 12 0.0 0.0 0.00 0.00 0.00 53 1019.5
20260904175726 24 302 0.0 9.7 0.00 0.00 0.00 53 1019.4
20260904175213 25 5 0.0 11.3 0.00 0.00 0.00 52 1019.4
20260904173724 25 355 4.8 24.1 0.00 0.00 0.00 51 1019.3
20260904173225 25 355 4.8 24.1 0.00 0.00 0.00 50 1019.4
20260904172210 25 355 1.6 14.5 0.00 0.00 0.00 49 1019.3
20260904171721 25 329 3.2 20.9 0.00 0.00 0.00 48 1019.4
20260904171224 25 5 3.2 22.5 0.00 0.00 0.00 48 1019.4
20260904170712 25 41 6.4 22.5 0.00 0.00 0.00 48 1019.4
20260904170220 26 347 4.8 22.5 0.00 0.00 0.00 47 1019.4
20260904165723 26 355 3.2 29.0 0.00 0.00 0.00 47 1019.3
20260904165210 26 0 6.4 29.0 0.00 0.00 0.00 46 1019.3
20260904164710 26 293 11.3 29.0 0.00 0.00 0.00 46 1019.4
20260904164209 27 336 9.7 24.1 0.00 0.00 0.00 44 1019.4
20260904163721 27 51 4.8 20.9 0.00 0.00 0.00 43 1019.3
20260904163219 28 123 4.8 22.5 0.00 0.00 0.00 42 1019.3
20260904162719 28 355 4.8 29.0 0.00 0.00 0.00 43 1019.3
20260904162212 28 37 8.0 29.0 0.00 0.00 0.00 42 1019.3
20260904161726 28 80 8.0 29.0 0.00 0.00 0.00 41 1019.3
20260904161223 28 78 6.4 22.5 0.00 0.00 0.00 40 1019.2
20260904160717 28 344 4.8 24.1 0.00 0.00 0.00 40 1019.2
20260904155721 28 14 3.2 24.1 0.00 0.00 0.00 41 1019.1
20260904155226 28 5 3.2 14.5 0.00 0.00 0.00 40 1019.3
20260904154715 28 198 4.8 14.5 0.00 0.00 0.00 41 1019.2
20260904154220 28 150 3.2 12.9 0.00 0.00 0.00 41 1019.2
20260904153720 28 117 1.6 12.9 0.00 0.00 0.00 41 1019.2
20260904153229 28 136 1.6 12.9 0.00 0.00 0.00 40 1019.2
20260904152224 28 171 3.2 17.7 0.00 0.00 0.00 40 1019.2
20260904151713 29 150 4.8 17.7 0.00 0.00 0.00 39 1019.2
20260904151224 29 5 3.2 19.3 0.00 0.00 0.00 39 1019.3
20260904150730 29 107 4.8 19.3 0.00 0.00 0.00 38 1019.3
20260904150219 29 317 3.2 19.3 0.00 0.00 0.00 39 1019.3
20260904145229 28 153 3.2 16.1 0.00 0.00 0.00 40 1019.4
20260904144714 28 175 4.8 19.3 0.00 0.00 0.00 41 1019.3
20260904143718 28 117 6.4 19.3 0.00 0.00 0.00 42 1019.4
20260904143215 28 163 8.0 19.3 0.00 0.00 0.00 40 1019.4
20260904141218 28 183 6.4 17.7 0.00 0.00 0.00 41 1019.4
20260904140729 28 163 6.4 24.1 0.00 0.00 0.00 41 1019.5
20260904140215 28 135 9.7 24.1 0.00 0.00 0.00 42 1019.6
20260904135232 28 161 9.7 20.9 0.00 0.00 0.00 40 1019.6
20260904134726 28 161 8.0 20.9 0.00 0.00 0.00 40 1019.6
20260904134221 28 159 4.8 20.9 0.00 0.00 0.00 40 1019.7
20260904133724 30 192 3.2 20.9 0.00 0.00 0.00 39 1019.8
20260904133224 29 283 6.4 20.9 0.00 0.00 0.00 40 1019.9
20260904132208 29 355 1.6 17.7 0.00 0.00 0.00 39 1020.0
20260904130210 28 123 1.6 14.5 0.00 0.00 0.00 40 1020.1
20260904125726 28 73 3.2 17.7 0.00 0.00 0.00 40 1020.3
20260904125218 28 320 4.8 17.7 0.00 0.00 0.00 42 1020.4
20260904124223 28 350 4.8 20.9 0.00 0.00 0.00 41 1020.5
20260904123720 27 301 6.4 20.9 0.00 0.00 0.00 42 1020.6
20260904123220 27 165 8.0 20.9 0.00 0.00 0.00 41 1020.6
20260904122716 28 171 6.4 20.9 0.00 0.00 0.00 41 1020.5
20260904122230 27 113 6.4 24.1 0.00 0.00 0.00 43 1020.6
20260904121720 27 86 11.3 24.1 0.00 0.00 0.00 42 1020.6
20260904121224 27 167 12.9 29.0 0.00 0.00 0.00 43 1020.6
20260904120720 27 151 9.7 29.0 0.00 0.00 0.00 43 1020.6
20260904120220 27 163 8.0 29.0 0.00 0.00 0.00 43 1020.6
20260904115726 27 180 8.0 22.5 0.00 0.00 0.00 42 1020.6
20260904114723 27 142 9.7 22.5 0.00 0.00 0.00 43 1020.7
20260904114221 27 94 9.7 20.9 0.00 0.00 0.00 44 1020.8
20260904113723 27 175 9.7 20.9 0.00 0.00 0.00 43 1020.8
20260904113210 26 134 9.7 20.9 0.00 0.00 0.00 44 1020.8
20260904112718 26 159 8.0 20.9 0.00 0.00 0.00 43 1020.9
20260904112217 26 166 8.0 20.9 0.00 0.00 0.00 45 1020.9
20260904111726 26 130 8.0 20.9 0.00 0.00 0.00 44 1021.0
20260904111219 26 167 11.3 19.3 0.00 0.00 0.00 45 1021.1
20260904110729 26 178 11.3 19.3 0.00 0.00 0.00 45 1021.1
20260904110224 26 157 9.7 20.9 0.00 0.00 0.00 45 1021.0
20260904105728 26 162 9.7 22.5 0.00 0.00 0.00 45 1021.2
20260904105212 26 166 11.3 22.5 0.00 0.00 0.00 45 1021.3
20260904104728 25 170 11.3 22.5 0.00 0.00 0.00 46 1021.3
20260904104210 25 130 11.3 22.5 0.00 0.00 0.00 46 1021.4
20260904103720 25 142 11.3 22.5 0.00 0.00 0.00 46 1021.5
20260904103220 25 160 9.7 19.3 0.00 0.00 0.00 46 1021.4
20260904102722 25 106 11.3 19.3 0.00 0.00 0.00 47 1021.5
20260904102214 25 184 9.7 17.7 0.00 0.00 0.00 46 1021.7
20260904100730 25 157 8.0 16.1 0.00 0.00 0.00 47 1021.9
20260904100219 25 102 8.0 17.7 0.00 0.00 0.00 46 1022.0
20260904095224 24 190 8.0 14.5 0.00 0.00 0.00 48 1022.1
20260904094714 24 161 6.4 17.7 0.00 0.00 0.00 48 1022.1
20260904094215 24 144 6.4 17.7 0.00 0.00 0.00 48 1022.2
20260904093713 23 164 8.0 16.1 0.00 0.00 0.00 48 1022.2
20260904093219 23 181 8.0 16.1 0.00 0.00 0.00 49 1022.2
20260904092721 23 178 8.0 16.1 0.00 0.00 0.00 48 1022.3
20260904091711 23 173 6.4 16.1 0.00 0.00 0.00 50 1022.3
20260904091222 23 162 8.0 17.7 0.00 0.00 0.00 50 1022.3
20260904090717 23 113 8.0 17.7 0.00 0.00 0.00 49 1022.3
20260904090220 23 188 6.4 17.7 0.00 0.00 0.00 50 1022.4
20260904085714 22 167 8.0 14.5 0.00 0.00 0.00 51 1022.4
20260904085230 22 140 8.0 14.5 0.00 0.00 0.00 51 1022.5
20260904084720 22 187 6.4 12.9 0.00 0.00 0.00 52 1022.4
20260904084212 22 157 6.4 14.5 0.00 0.00 0.00 51 1022.4
20260904083230 22 176 8.0 16.1 0.00 0.00 0.00 52 1022.4
20260904082220 21 157 8.0 16.1 0.00 0.00 0.00 54 1022.5
20260904081720 21 161 8.0 12.9 0.00 0.00 0.00 54 1022.4
20260904081210 21 178 6.4 12.9 0.00 0.00 0.00 54 1022.4
20260904080744 21 176 3.2 8.0 0.00 0.00 0.00 56 1022.4
20260904080219 21 160 1.6 0.0 0.00 0.00 0.00 57 1022.5
20260904075717 21 167 0.0 0.0 0.00 0.00 0.00 59 1022.5
20260904075211 20 172 0.0 0.0 0.00 0.00 0.00 60 1022.5
20260904074714 20 191 0.0 0.0 0.00 0.00 0.00 61 1022.5
20260904074226 20 208 0.0 0.0 0.00 0.00 0.00 64 1022.6
20260904073216 19 205 0.0 0.0 0.00 0.00 0.00 67 1022.5
20260904072728 18 164 0.0 0.0 0.00 0.00 0.00 67 1022.5
20260904072229 18 85 0.0 0.0 0.00 0.00 0.00 69 1022.7
20260904070711 17 85 0.0 0.0 0.00 0.00 0.00 73 1022.8
20260904070221 16 85 0.0 0.0 0.00 0.00 0.00 75 1022.8
20260904065713 16 85 0.0 0.0 0.00 0.00 0.00 75 1022.8
20260904065215 15 85 0.0 0.0 0.00 0.00 0.00 76 1023.0
20260904064724 15 85 0.0 0.0 0.00 0.00 0.00 79 1023.1
20260904064212 14 85 0.0 0.0 0.00 0.00 0.00 79 1023.1
20260904063723 14 85 0.0 0.0 0.00 0.00 0.00 80 1023.1
20260904063216 13 85 0.0 0.0 0.00 0.00 0.00 82 1023.1
20260904061732 13 59 0.0 0.0 0.00 0.00 0.00 83 1023.1
20260904060724 12 59 0.0 0.0 0.00 0.00 0.00 83 1023.2
20260904060215 12 59 0.0 0.0 0.00 0.00 0.00 83 1023.2
20260904055218 12 59 0.0 0.0 0.00 0.00 0.00 83 1023.2
20260904054719 12 59 0.0 0.0 0.00 0.00 0.00 83 1023.3
20260904053724 12 59 0.0 0.0 0.00 0.00 0.00 83 1023.2
20260904053219 12 59 0.0 0.0 0.00 0.00 0.00 83 1023.2
20260904052726 12 59 0.0 0.0 0.00 0.00 0.00 83 1023.2
20260904052228 12 59 0.0 0.0 0.00 0.00 0.00 82 1023.2
20260904051722 12 59 0.0 0.0 0.00 0.00 0.00 82 1023.1
20260904050748 12 22 0.0 0.0 0.00 0.00 0.00 82 1023.3
20260904050223 12 22 0.0 0.0 0.00 0.00 0.00 82 1023.3
20260904045731 12 27 0.0 0.0 0.00 0.00 0.00 82 1023.3
20260904045223 12 27 0.0 0.0 0.00 0.00 0.00 82 1023.4
20260904044729 12 27 0.0 0.0 0.00 0.00 0.00 82 1023.3
20260904044220 12 27 0.0 0.0 0.00 0.00 0.00 81 1023.3
20260904043717 12 27 0.0 0.0 0.00 0.00 0.00 81 1023.3
20260904043221 12 27 0.0 0.0 0.00 0.00 0.00 81 1023.3
20260904042222 12 27 0.0 0.0 0.00 0.00 0.00 81 1023.4
20260904041729 12 27 0.0 0.0 0.00 0.00 0.00 81 1023.4
20260904041211 12 27 0.0 0.0 0.00 0.00 0.00 81 1023.4
20260904040714 12 27 0.0 0.0 0.00 0.00 0.00 81 1023.4
20260904040222 12 27 0.0 0.0 0.00 0.00 0.00 81 1023.6
20260904035225 13 27 0.0 0.0 0.00 0.00 0.00 81 1023.6
20260904034714 13 27 0.0 0.0 0.00 0.00 0.00 80 1023.7
20260904034214 13 27 0.0 0.0 0.00 0.00 0.00 80 1023.8
20260904033219 13 27 0.0 0.0 0.00 0.00 0.00 80 1023.8
20260904032708 13 27 0.0 0.0 0.00 0.00 0.00 80 1023.9
20260904032218 13 27 0.0 0.0 0.00 0.00 0.00 80 1023.9
20260904031722 13 27 0.0 0.0 0.00 0.00 0.00 80 1023.9
20260904030728 13 25 0.0 0.0 0.00 0.00 0.00 80 1023.8
20260904030218 13 355 0.0 0.0 0.00 0.00 0.00 79 1023.8
20260904025720 13 44 0.0 0.0 0.00 0.00 0.00 79 1023.8
20260904024720 13 51 0.0 0.0 0.00 0.00 0.00 79 1023.9
20260904024231 13 51 0.0 0.0 0.00 0.00 0.00 79 1024.0
20260904023723 13 51 0.0 0.0 0.00 0.00 0.00 79 1024.1
20260904022718 13 355 0.0 0.0 0.00 0.00 0.00 79 1024.3
20260904021749 13 342 0.0 0.0 0.00 0.00 0.00 78 1024.1
20260904021213 13 342 0.0 0.0 0.00 0.00 0.00 78 1024.4
20260904020716 13 90 0.0 0.0 0.00 0.00 0.00 78 1024.3
20260904020237 13 90 0.0 0.0 0.00 0.00 0.00 78 1024.3
20260904015731 13 96 0.0 0.0 0.00 0.00 0.00 78 1024.3
20260904015218 13 126 0.0 0.0 0.00 0.00 0.00 78 1024.3
20260904014722 13 40 0.0 0.0 0.00 0.00 0.00 78 1024.3
20260904013223 13 19 0.0 0.0 0.00 0.00 0.00 78 1024.5
20260904012721 13 19 0.0 0.0 0.00 0.00 0.00 77 1024.6
20260904012221 13 19 0.0 0.0 0.00 0.00 0.00 77 1024.6
20260904011208 14 269 0.0 0.0 0.00 0.00 0.00 77 1024.6
20260904010217 14 116 0.0 0.0 0.00 0.00 0.00 76 1024.6
20260904005727 14 105 0.0 0.0 0.00 0.00 0.00 76 1024.6
20260904005229 14 105 0.0 0.0 0.00 0.00 0.00 77 1024.6
20260904004727 14 105 0.0 0.0 0.00 0.00 0.00 76 1024.6
20260904004219 14 66 0.0 0.0 0.00 0.00 0.00 76 1024.7
20260904003719 14 67 0.0 0.0 0.00 0.00 0.00 76 1024.8
20260904003223 14 78 0.0 0.0 0.00 0.00 0.00 76 1024.8
20260904002714 14 215 0.0 0.0 0.00 0.00 0.00 76 1024.8
20260904002221 14 215 0.0 0.0 0.00 0.00 0.00 76 1024.9
20260904001718 14 217 0.0 0.0 0.00 0.00 0.00 76 1024.9
20260904001222 14 219 0.0 0.0 0.00 0.00 0.00 76 1025.0
20260904000725 14 63 0.0 0.0 0.00 0.00 0.00 76 1025.0
20260904000221 14 39 0.0 0.0 0.00 0.00 0.00 76 1025.0
20260903235727 14 0 0.0 0.0 0.00 0.00 0.00 76 1024.9
20260903235215 14 249 0.0 0.0 0.00 0.00 0.00 76 1024.9
20260903234716 15 249 0.0 0.0 0.00 0.00 0.00 75 1024.9
20260903234234 15 249 0.0 0.0 0.00 0.00 0.00 75 1024.9
20260903233721 15 140 0.0 0.0 0.00 0.00 0.00 76 1024.9
20260903232222 15 14 0.0 0.0 0.00 0.00 0.00 75 1025.1
20260903231707 15 14 0.0 0.0 0.00 0.00 0.00 75 1025.1
20260903230716 15 355 0.0 0.0 0.00 0.00 0.00 75 1025.2
20260903225718 15 350 0.0 0.0 0.00 0.00 0.00 75 1025.2
20260903225218 15 350 0.0 0.0 0.00 0.00 0.00 75 1025.3
20260903224722 15 350 0.0 0.0 0.00 0.00 0.00 75 1025.2
20260903223717 15 346 0.0 0.0 0.00 0.00 0.00 74 1025.3
20260903223218 15 329 0.0 0.0 0.00 0.00 0.00 74 1025.3
20260903222226 15 329 0.0 0.0 0.00 0.00 0.00 74 1025.3
20260903221723 15 329 0.0 0.0 0.00 0.00 0.00 74 1025.2
20260903220743 15 174 0.0 0.0 0.00 0.00 0.00 73 1025.2
20260903220211 15 12 0.0 0.0 0.00 0.00 0.00 73 1025.2
20260903215720 15 12 0.0 0.0 0.00 0.00 0.00 73 1025.2
20260903215226 15 12 0.0 0.0 0.00 0.00 0.00 72 1025.2
20260903213714 16 59 0.0 0.0 0.00 0.00 0.00 72 1025.2
20260903213217 16 329 0.0 0.0 0.00 0.00 0.00 72 1025.2
20260903212728 16 329 0.0 0.0 0.00 0.00 0.00 71 1025.2
20260903212223 16 329 0.0 0.0 0.00 0.00 0.00 71 1025.2
20260903210720 16 38 0.0 0.0 0.00 0.00 0.00 70 1025.4
20260903210227 16 17 0.0 0.0 0.00 0.00 0.00 70 1025.4
20260903205720 16 16 0.0 0.0 0.00 0.00 0.00 69 1025.4
20260903205222 16 5 0.0 0.0 0.00 0.00 0.00 69 1025.4
20260903204720 16 75 0.0 0.0 0.00 0.00 0.00 69 1025.3
20260903204242 16 76 0.0 0.0 0.00 0.00 0.00 69 1025.3
20260903203709 16 112 0.0 0.0 0.00 0.00 0.00 68 1025.3
20260903203232 16 100 0.0 0.0 0.00 0.00 0.00 68 1025.3
20260903202727 16 100 0.0 0.0 0.00 0.00 0.00 68 1025.3
20260903202222 17 344 0.0 0.0 0.00 0.00 0.00 68 1025.3
20260903201723 17 344 0.0 0.0 0.00 0.00 0.00 67 1025.3